Home > Weather > Kalispell > Past weeks

Flag for USA Past Weather in Kalispell, Montana, USA — Yesterday and Last 2 Weeks

Now
64 °F

Overcast.


Feels Like: 64 °F
Forecast: 44 / 76 °F
Wind: 5 mph from East

Location: Kalispell - Glacier Park International

Current Time: Jun 25, 2016 at 8:49:23 PM

Latest Report: Jun 25, 2016 at 7:55 PM


Visibility: 10 mi

Pressure: 30.15 "Hg (27.12 "Hg at 902m altitude)

Humidity: 56%

Dew Point: 48 °F

Location of KalispellLocation

Past Weather in Kalispell — Graph

°F

Kalispell Temperature Yesterday

Maximum temperature yesterday: 58 °F (at 9:55 AM)
Minimum temperature yesterday: 41 °F (at 4:55 AM)
Average temperature yesterday: 52 °F

High & Low Weather Summary for the Past Weeks

 TemperatureHumidityPressure
High84 °F (Jun 20, 6:55 PM)100% (Jun 12, 3:55 AM)30.37 "Hg (Jun 12, 3:55 AM)
Low31 °F (Jun 15, 5:55 AM)17% (Jun 20, 6:55 PM)29.72 "Hg (Jun 16, 3:55 AM)
Average56 °F65%30.03 "Hg
* Reported Jun 10 6:55 PM — Jun 25 6:55 PM, Kalispell, Weather by CustomWeather, © 2016

Note: Actual official high and low records may vary slightly from our data, if they occured in-between our weather recording intervals... More about our weather records

Advertising

Kalispell Weather History for the Previous 24 Hours

Scroll right to see more
 ConditionsComfort  
Time TempWeatherWind HumidityBarometerVisibility
6:55 PM
Sat, Jun 25
64 °FPartly sunny.No wind54%30.16 "Hg10 mi
5:55 PM64 °FPartly sunny.6 mph52%30.16 "Hg10 mi
4:55 PM64 °FOvercast.7 mph54%30.18 "Hg10 mi
3:55 PM62 °FOvercast.9 mph56%30.19 "Hg10 mi
2:55 PM62 °FOvercast.9 mph56%30.19 "Hg10 mi
1:55 PM61 °FOvercast.9 mph56%30.19 "Hg10 mi
12:55 PM59 °FOvercast.10 mph60%30.19 "Hg10 mi
11:55 AM59 °FMostly cloudy.10 mph60%30.18 "Hg10 mi
10:55 AM56 °FOvercast.9 mph72%30.18 "Hg10 mi
9:55 AM55 °FOvercast.8 mph77%30.17 "Hg10 mi
8:55 AM53 °FOvercast.7 mph83%30.17 "Hg10 mi
7:55 AM52 °FOvercast.7 mph86%30.15 "Hg10 mi
6:55 AM50 °FOvercast.7 mph89%30.14 "Hg10 mi
5:55 AM50 °FOvercast.6 mph89%30.13 "Hg10 mi
4:55 AM49 °FOvercast.8 mph93%30.10 "Hg10 mi
3:55 AM48 °FLight rain. Overcast.10 mph96%30.10 "Hg10 mi
2:55 AM48 °FLight rain. Overcast.9 mph96%30.10 "Hg10 mi
1:55 AM47 °FLight rain. Overcast.10 mph100%30.09 "Hg10 mi
12:55 AM48 °FRain. Overcast.10 mph93%30.09 "Hg10 mi
11:55 PM
Fri, Jun 24
49 °FMostly cloudy.10 mph86%30.09 "Hg10 mi
10:55 PM50 °FLight rain. Overcast.8 mph71%30.11 "Hg10 mi
9:55 PM50 °FOvercast.13 mph68%30.09 "Hg10 mi
8:55 PM52 °FOvercast.13 mph59%30.08 "Hg10 mi
Weather by CustomWeather, © 2016

See weather overviewHow to use our weather pages